Regional Weather Roundup
Issued by NWS

Home | Current Version | Previous Version | Text Only | Print | Product List | Glossary On
Versions: 1 2 3 4 5 6 7 8 9 10 11 12 13 14 15 16 17 18 19 20 21 22 23 24 25 26 27 28 29 30 31 32 33 34 35 36 37 38 39 40 41 42 43 44 45 46 47 48 49 50
000
ASUS44 KFWD 230710
RWRTX
NORTH TEXAS HOURLY WEATHER ROUNDUP
NATIONAL WEATHER SERVICE FORT WORTH TX
200 AM CDT MON OCT 23 2017

NOTE: "FAIR" INDICATES FEW OR NO CLOUDS BELOW 12,000 FEET WITH NO
SIGNIFICANT WEATHER AND/OR OBSTRUCTIONS TO VISIBILITY.

TXZ118-119-230800-
DALLAS/FORT WORTH METROPLEX

CITY           SKY/WX    TMP DP  RH WIND       PRES   REMARKS
DFW AIRPORT    CLEAR     53  43  68 S6        30.12F
DALLAS LOVE    PTCLDY    57  46  66 CALM      30.14F
FTW MEACHAM    CLEAR     52  48  86 CALM      30.14F
DAL-EXECUTIVE  CLEAR     51  45  79 SW5       30.14F
FTW-ALLIANCE   CLEAR     47  41  80 CALM      30.14S
FTW-NAS-JRB    CLEAR     54  41  61 CALM      30.15F
FTW-SPINKS     CLEAR     45  43  93 CALM      30.17S
ARLINGTON      CLEAR     47  45  93 CALM      30.15F
GRAND PRAIRIE  CLEAR     53  43  68 S3        30.16F
ADDISON        CLEAR     54  45  73 CALM      30.16S
MESQUITE       CLEAR     49  46  88 CALM      30.15S
LANCASTER      CLEAR     49  45  85 CALM      30.16F
$$

TXZ091>094-102>105-117-120-121-131>134-230800-
NORTH CENTRAL TEXAS

CITY           SKY/WX    TMP DP  RH WIND       PRES   REMARKS
SHRMAN/DENISON CLEAR     52  38  58 CALM      30.13F
GAINESVILLE    CLEAR     46  42  87 CALM      30.15S
BOWIE          CLEAR     47  44  90 CALM      30.14S
BRIDGEPORT     CLEAR     45  45 100 CALM      30.15F
DECATUR        CLEAR     56  39  53 S5        30.12F
DENTON         CLEAR     46  43  89 CALM      30.13F
MCKINNEY       CLEAR     48  46  93 CALM      30.14S
BONHAM         CLEAR     48  42  82 CALM      30.13F
GREENVILLE     CLEAR     48  48 100 CALM      30.14F
ROCKWALL       CLEAR     54  44  67 CALM      30.14F
TERRELL        CLEAR     49  44  83 S3        30.15S
WAXAHACHIE     CLEAR     51  43  75 CALM      30.17S
CLEBURNE       CLEAR     52  41  66 NW5       30.17F HAZE
GRANBURY       CLEAR     47  42  82 CALM      30.17F
$$

TXZ083>090-098>101-113>116-127>130-139>142-154-155-230800-
WESTERN NORTH TEXAS

CITY           SKY/WX    TMP DP  RH WIND       PRES   REMARKS
WICHITA FALLS  CLEAR     50  37  61 S10       30.11F
WF-KICKAPOO    CLEAR     51  40  65 S7        30.14S
VERNON         CLEAR     51  40  64 SW7       30.12F
ABILENE        CLEAR     47  41  80 S7        30.16F
ABILENE-DYESS  CLEAR     46  38  74 S5        30.16S
GRAHAM           N/A     44  44 100 CALM      30.13F
BRECKENRIDGE   CLEAR     52  40  63 S7        30.15F
CISCO          CLEAR     54  37  54 S9        30.17F
EASTLAND       CLEAR     41  41  97 CALM      30.17S
RANGER         CLEAR     51  38  61 S5        30.17S
MINERAL WELLS  CLEAR     46  40  79 CALM      30.14F
STEPHENVILLE   CLEAR     47  43  86 CALM      30.20S
COMANCHE       CLEAR     53  40  62 S5        30.17F
COLEMAN        CLEAR     45  38  76 CALM      30.18S
$$

TXZ143>147-156>162-174-175-230800-
CENTRAL TEXAS

CITY           SKY/WX    TMP DP  RH WIND       PRES   REMARKS
WACO           CLEAR     48  44  86 MISG      30.16S
WACO-MCGREGOR  CLEAR     49  46  90 CALM      30.17S
MEXIA          CLEAR     54  43  66 NW5       30.16S
HEARNE         CLEAR     48  48 100 CALM      30.17F
CAMERON        CLEAR     53  49  86 CALM      30.16F
TEMPLE         CLEAR     47  45  93 NW3       30.17F
KILLEEN        CLEAR     56  40  56 NW7       30.16F
KILLEEN-SKYLRK CLEAR     51  46  83 W5        30.17F
FORT HOOD      CLEAR     52  45  76 NW5       30.13F
GATESVILLE     PTCLDY    50  43  76 CALM      30.19S
HAMILTON       CLEAR     49  41  73 CALM      30.18F
LAMPASAS       CLEAR     50  47  87 CALM      30.16F
$$

TXZ095>097-106>112-122>126-135>138-148>153-164>167-230800-
EAST TEXAS

CITY           SKY/WX    TMP DP  RH WIND       PRES   REMARKS
PARIS          CLEAR     50  45  83 W5        30.13F
SULPHUR SPRNGS CLEAR     50  46  87 SW3       30.16S
MOUNT PLEASANT CLEAR     47  47  99 CALM      30.14F
GILMER         CLEAR     47  46  97 CALM      30.13S
MINEOLA        CLEAR     50  46  87 CALM      30.14S
TYLER          CLEAR     50  48  93 CALM      30.13F
LONGVIEW       CLEAR     51  32  48 CALM      30.12S
MARSHALL       CLEAR     47  46  94 MISG      30.14R
ATHENS         CLEAR     46  46 100 CALM      30.14S
PALESTINE      CLEAR     50  48  93 CALM      30.16S
JACKSONVILLE   CLEAR     57  44  61 CALM      30.16S
HENDERSON      CLEAR     47  47  99 CALM      30.15R
CENTER         SUNNY     55  53  95 CALM      30.14R
NACOGDOCHES    CLEAR     48  48 100 CALM      30.15S
LUFKIN         CLEAR     50  49  96 CALM      30.14S
$$

SUPPLEMENTAL OBSERVATIONS (NWS FORT WORTH AREA)

CITY           SKY/WX    TMP DP  RH WIND       PRES   REMARKS
CADDO GRASSLND   N/A     48  43  81 CALM        N/A
PAT MAYSE LAKE   N/A     52  50  93 CALM        N/A
LBJ GRASSLAND    N/A     50  39  66 SE5         N/A
POSSUM KINGDOM   N/A     54  36  50 S7          N/A
GRANBURY         N/A     46  41  81 CALM        N/A
MCGREGOR         N/A     46  41  81 SW1         N/A
TEMPLE           N/A     54  43  66 NW2         N/A
$$

SUPPLEMENTAL OBSERVATIONS (NWS NORMAN AREA)

CITY           SKY/WX    TMP DP  RH WIND       PRES   REMARKS
GOODLETT         N/A     48  39  69 S7        30.11F
ODELL            N/A     54  41  63 S12       30.13S
CROWELL          N/A     51  39  64 SW7       30.13S
KNOX CITY        N/A     50  40  70 SW8       30.14F
SEYMOUR          N/A     50  41  69 S3        30.13F
MILLERS CREEK    N/A     52  39  62 SW7         N/A
$$

SUPPLEMENTAL OBSERVATIONS (NWS SAN ANGELO AREA)

CITY           SKY/WX    TMP DP  RH WIND       PRES   REMARKS
WEINERT          N/A     54  39  57 S9        30.14F
HASKELL          N/A     52  39  62 S6        30.15S
THROCKMORTON     N/A     53  38  55 S5        30.15S
STAMFORD         N/A     48  43  84 S6        30.16S
CLYDE            N/A     53  37  55 S9        30.18S
HAMBY            N/A     48  37  66 SE2         N/A
IVIE RESERVOIR   N/A     50  36  57 E3          N/A
COLORADO BEND    N/A     52  37  58 SW2         N/A
$$

SUPPLEMENTAL OBSERVATIONS (NWS SHREVEPORT AREA)

CITY           SKY/WX    TMP DP  RH WIND       PRES   REMARKS
CLARKSVILLE      N/A     46  43  87 CALM        N/A
TEXARKANA        N/A     45  43  93 CALM        N/A
LINDEN           N/A     52  46  82 W2          N/A
GILMER           N/A     46  45  93 CALM        N/A
HENDERSON        N/A     46  45  93 CALM        N/A
LUFKIN           N/A     52  50  93 MISG        N/A
S SABINE NF      N/A     52  50  93 SW1         N/A
$$

SUPPLEMENTAL OBSERVATIONS ARE A COLLECTION OF AUTOMATED INSTRUMENTS
THAT ARE MAINTAINED BY A VARIETY OF FEDERAL AND STATE AGENCIES.
CERTAIN ELEMENTS...SUCH AS HUMIDITY VALUES AND SUSTAINED WIND
SPEEDS...MAY BE APPROXIMATED.





USA.gov is the U.S. government's official web portal to all federal, state and local government web resources and services.